DW6198 Weather Reports


Display with metric or nautical units.
time (UTC)temp
F
wind
direction
speed
MPH
gust
MPH
rain 1hr
in
rain 24hr
in
rain mn
in
humidity
%
barometer
mb
20190124001622 10 212 0.0 0.0 0.00 0.00 0.00 92 1010.3
20190124000146 10 212 0.0 1.0 0.00 0.00 0.00 91 1010.3
20190123234623 10 212 0.0 1.0 0.00 0.00 0.00 91 1010.2
20190123233125 10 212 0.0 0.0 0.00 0.00 0.00 91 1010.1
20190123231626 10 213 0.0 0.0 0.00 0.00 0.00 91 1010.1
20190123230118 11 212 0.0 1.0 0.00 0.00 0.00 91 1010.2
20190123224617 11 212 0.0 0.0 0.00 0.00 0.00 92 1010.2
20190123223113 11 212 0.0 1.0 0.00 0.00 0.00 92 1010.2
20190123221548 11 212 0.0 1.0 0.00 0.00 0.00 92 1010.0
20190123220213 11 212 0.0 0.0 0.00 0.00 0.00 92 1009.9
20190123214550 12 212 0.0 0.0 0.00 0.00 0.00 92 1009.8
20190123213117 12 212 0.0 0.0 0.00 0.00 0.00 92 1009.6
20190123211650 12 212 0.0 0.0 0.00 0.00 0.00 92 1009.5
20190123210115 11 212 0.0 0.0 0.00 0.00 0.00 92 1009.4
20190123204548 11 212 0.0 1.0 0.00 0.00 0.00 92 1009.3
20190123203057 11 212 0.0 1.0 0.00 0.00 0.00 92 1009.1
20190123201616 11 212 0.0 1.0 0.00 0.00 0.00 92 1009.1
20190123200115 12 212 0.0 1.0 0.00 0.00 0.00 92 1008.9
20190123194632 11 212 0.0 1.0 0.00 0.00 0.00 93 1008.7
20190123193107 11 212 0.0 1.0 0.00 0.00 0.00 93 1008.8
20190123191558 11 212 0.0 1.0 0.00 0.00 0.00 92 1008.8
20190123190056 12 212 0.0 1.0 0.00 0.00 0.00 92 1008.7
20190123184547 12 138 0.0 1.0 0.00 0.00 0.00 91 1008.6
20190123183030 13 171 0.0 3.0 0.00 0.00 0.00 90 1008.4
20190123181613 14 207 0.0 4.0 0.00 0.00 0.00 92 1008.3
20190123180100 14 200 0.0 4.0 0.00 0.00 0.00 92 1008.3
20190123174558 14 221 0.0 3.0 0.00 0.00 0.00 93 1008.2
20190123173115 13 222 0.0 1.0 0.00 0.00 0.00 93 1008.4
20190123171554 12 211 0.0 3.0 0.00 0.00 0.00 94 1008.3
20190123170051 9 200 0.0 1.0 0.00 0.00 0.00 92 1008.2
20190123164544 9 203 0.0 1.0 0.00 0.00 0.00 92 1008.2
20190123163150 9 201 0.0 1.0 0.00 0.00 0.00 91 1008.0
20190123161541 9 197 0.0 1.0 0.00 0.00 0.00 91 1007.9
20190123160040 9 197 0.0 1.0 0.00 0.00 0.00 90 1007.9
20190123154547 9 197 0.0 1.0 0.00 0.00 0.00 91 1007.9
20190123153022 9 197 0.0 1.0 0.00 0.00 0.00 90 1007.8
20190123151521 9 197 0.0 1.0 0.00 0.00 0.00 90 1007.5
20190123150033 10 139 0.0 0.0 0.00 0.00 0.00 90 1007.3
20190123144535 10 139 0.0 0.0 0.00 0.00 0.00 89 1007.5
20190123143017 11 139 0.0 1.0 0.00 0.00 0.00 89 1007.3
20190123141523 12 139 0.0 1.0 0.00 0.00 0.00 89 1007.3
20190123140021 12 156 1.0 2.0 0.00 0.00 0.00 89 1007.3
20190123134529 12 134 1.0 3.0 0.00 0.00 0.00 88 1007.2
20190123133018 12 115 1.0 3.0 0.00 0.00 0.00 87 1007.1
20190123131541 13 138 2.0 4.0 0.00 0.00 0.00 85 1007.0
20190123130013 13 219 2.0 4.0 0.00 0.00 0.00 85 1006.7
20190123124517 12 208 0.0 4.0 0.00 0.00 0.00 84 1006.7
20190123123025 13 129 2.0 4.0 0.00 0.00 0.00 83 1006.8
20190123121509 12 225 1.0 4.0 0.00 0.00 0.00 83 1007.0
20190123120025 13 163 2.0 4.0 0.00 0.00 0.00 81 1006.9
20190123114524 13 120 2.0 5.0 0.00 0.00 0.00 80 1007.0
20190123113025 13 148 2.0 4.0 0.00 0.00 0.00 79 1007.1
20190123111503 12 133 0.0 2.0 0.00 0.00 0.00 83 1007.4
20190123110000 10 143 1.0 3.0 0.00 0.00 0.00 84 1007.6
20190123104655 10 130 2.0 4.0 0.00 0.00 0.00 83 1007.7
20190123103226 10 133 2.0 5.0 0.00 0.00 0.00 83 1007.7
20190123101703 9 141 1.0 3.0 0.00 0.00 0.00 83 1007.6
20190123100203 8 160 1.0 4.0 0.00 0.00 0.00 83 1007.7
20190123094722 8 111 2.0 4.0 0.00 0.00 0.00 80 1007.8
20190123093219 9 80 0.0 3.0 0.00 0.00 0.00 81 1007.8
20190123091629 8 108 0.0 6.0 0.00 0.00 0.00 78 1007.8
20190123090147 11 238 1.0 5.0 0.00 0.00 0.00 75 1007.5
20190123084649 11 139 1.0 3.0 0.00 0.00 0.00 77 1007.5
20190123083128 11 139 0.0 3.0 0.00 0.00 0.00 74 1007.7
20190123081716 14 186 0.0 3.0 0.00 0.00 0.00 75 1007.8
20190123080115 14 160 0.0 2.0 0.00 0.00 0.00 82 1007.8
20190123074610 12 163 0.0 2.0 0.00 0.00 0.00 86 1007.8
20190123073202 9 347 0.0 5.0 0.00 0.00 0.00 89 1007.9
20190123071725 7 33 0.0 25.0 0.00 0.00 0.00 88 1007.9
20190123070123 8 204 0.0 1.0 0.00 0.00 0.00 86 1008.0
20190123064643 9 228 0.0 2.0 0.00 0.00 0.00 85 1008.1
20190123063108 10 7 0.0 1.0 0.00 0.00 0.00 87 1007.9
20190123061632 11 18 1.0 2.0 0.00 0.00 0.00 87 1008.0
20190123060059 11 327 0.0 1.0 0.00 0.00 0.00 86 1008.0
20190123054600 11 327 0.0 1.0 0.00 0.00 0.00 88 1008.1
20190123053108 10 327 0.0 2.0 0.00 0.00 0.00 87 1008.1
20190123051546 10 311 0.0 1.0 0.00 0.00 0.00 87 1008.1
20190123050043 11 311 0.0 1.0 0.00 0.00 0.00 88 1008.1
20190123044533 11 311 0.0 1.0 0.00 0.00 0.00 87 1008.2
20190123043109 11 253 0.0 2.0 0.00 0.00 0.00 87 1008.3
20190123041614 11 340 0.0 1.0 0.00 0.00 0.00 89 1008.4
20190123040046 11 340 0.0 1.0 0.00 0.00 0.00 89 1008.5
20190123034540 10 338 0.0 1.0 0.00 0.00 0.00 90 1008.6
20190123033051 11 335 1.0 1.0 0.00 0.00 0.00 88 1008.6
20190123031536 11 15 0.0 2.0 0.00 0.00 0.00 89 1008.9
20190123030036 11 60 1.0 3.0 0.00 0.00 0.00 89 1008.9
20190123024528 11 4 1.0 3.0 0.00 0.00 0.00 89 1009.1
20190123023026 12 40 1.0 2.0 0.00 0.00 0.00 89 1009.2
20190123021511 12 357 1.0 2.0 0.00 0.00 0.00 89 1009.4
20190123020014 11 345 0.0 1.0 0.00 0.00 0.00 89 1009.7
20190123014507 11 347 0.0 2.0 0.00 0.00 0.00 89 1009.8
20190123013004 12 336 0.0 2.0 0.00 0.00 0.00 89 1010.0
20190123011505 11 313 1.0 3.0 0.00 0.00 0.00 89 1010.2
20190123010155 12 18 1.0 2.0 0.00 0.00 0.00 89 1010.3
20190123004635 12 325 0.0 2.0 0.00 0.00 0.00 89 1010.4
20190123003207 12 340 0.0 3.0 0.00 0.00 0.00 89 1010.5